Phoenix, AZ

1:33 PM MST on February 24, 2017 (GMT -0700)
Phoenix Sky Harbor International

Weather History for KPHX - May, 2013

Change the Weather History Date:

Wednesday, May 22, 2013

  Actual Average Record
Temperature  
Mean Temperature 88 °F 84 °F  
Max Temperature 103 °F 97 °F 109 °F (2000)
Min Temperature 72 °F 71 °F 48 °F (1962)
Degree Days  
Heating Degree Days 0 0  
Month to date heating degree days 0 0  
Since 1 July heating degree days 881 934  
Cooling Degree Days 23 19  
Month to date cooling degree days 405 348  
Year to date cooling degree days 909 703  
Growing Degree Days 37 (Base 50)    
Moisture  
Dew Point 24 °F    
Average Humidity 13    
Maximum Humidity 20    
Minimum Humidity 5    
Precipitation  
Precipitation 0.00 in 0.00 in 0.28 in (2008)
Month to date precipitation 0.00 0.08  
Year to date precipitation 2.61 3.18  
Snow  
Snow 0.00 in - - ()
Month to date snowfall 0.0  
Year to date snowfall 0.0  
Since 1 July snowfall 0.0  
Snow Depth 0.00 in    
Sea Level Pressure  
Sea Level Pressure 29.63 in    
Wind  
Wind Speed 10 mph (SSE)    
Max Wind Speed 25 mph    
Max Gust Speed 29 mph    
Visibility 10 miles    
Events      
T = Trace of Precipitation, MM = Missing Value Source: NWS Daily Summary

Daily Weather History Graph

Daily Weather History Graph

Search for Another Location

Airport or City:

Trip Planner

Search our weather history database for the weather conditions in past years. The results will help you decide how hot, cold, wet, or windy it might be!

Date:

Astronomy

May. 22, 2013 Rise Set
Actual Time 5:23 AM MST 7:26 PM MST
Civil Twilight 4:55 AM MST 7:54 PM MST
Nautical Twilight 4:21 AM MST 8:28 PM MST
Astronomical Twilight 3:45 AM MST 9:05 PM MST
Moon 4:59 PM MST (5/22) 3:21 AM MST (5/22)
Length of Visible Light 14h 59m
Length of Day
14h 03m
Waxing Gibbous, 92% of the Moon is Illuminated
May 22
Waxing Gibbous
May 24
Full
May 31
Last Quarter
Jun 8
New
Jun 16
First Quarter

Hourly Weather History & Observations

Time (MST) Temp. Dew Point Humidity Pressure Visibility Wind Dir Wind Speed Gust Speed Precip Events Conditions
12:51 AM 80.1 °F 33.1 °F 18% 29.65 in 10.0 mi East 8.1 mph - N/A   Partly Cloudy
1:51 AM 78.1 °F 34.0 °F 20% 29.65 in 10.0 mi ENE 8.1 mph - N/A   Partly Cloudy
2:51 AM 75.9 °F 28.0 °F 17% 29.66 in 10.0 mi East 9.2 mph - N/A   Clear
3:51 AM 73.9 °F 28.0 °F 18% 29.66 in 10.0 mi East 6.9 mph - N/A   Clear
4:51 AM 73.0 °F 30.9 °F 21% 29.67 in 10.0 mi East 9.2 mph - N/A   Partly Cloudy
5:51 AM 72.0 °F 28.0 °F 20% 29.68 in 10.0 mi East 9.2 mph - N/A   Partly Cloudy
6:51 AM 75.0 °F 28.0 °F 18% 29.70 in 10.0 mi East 10.4 mph - N/A   Partly Cloudy
7:51 AM 79.0 °F 28.9 °F 16% 29.71 in 10.0 mi East 11.5 mph - N/A   Scattered Clouds
8:51 AM 82.9 °F 30.9 °F 15% 29.72 in 10.0 mi ESE 9.2 mph - N/A   Scattered Clouds
9:51 AM 89.1 °F 32.0 °F 13% 29.71 in 10.0 mi ESE 9.2 mph - N/A   Partly Cloudy
10:51 AM 93.0 °F 23.0 °F 8% 29.70 in 10.0 mi SSE 8.1 mph - N/A   Partly Cloudy
11:51 AM 96.1 °F 24.1 °F 8% 29.68 in 10.0 mi SE 9.2 mph 18.4 mph N/A   Partly Cloudy
12:51 PM 100.0 °F 19.0 °F 5% 29.64 in 10.0 mi SSE 9.2 mph 21.9 mph N/A   Partly Cloudy
1:51 PM 100.0 °F 23.0 °F 6% 29.62 in 10.0 mi SSW 9.2 mph 18.4 mph N/A   Partly Cloudy
2:51 PM 100.9 °F 21.9 °F 6% 29.58 in 10.0 mi SW 9.2 mph 21.9 mph N/A   Partly Cloudy
3:51 PM 100.0 °F 21.9 °F 6% 29.55 in 10.0 mi NW 8.1 mph 19.6 mph N/A   Partly Cloudy
4:51 PM 100.9 °F 23.0 °F 6% 29.54 in 10.0 mi WNW 15.0 mph 20.7 mph N/A   Partly Cloudy
5:51 PM 100.9 °F 23.0 °F 6% 29.53 in 10.0 mi SW 9.2 mph - N/A   Partly Cloudy
6:51 PM 98.1 °F 16.0 °F 5% 29.54 in 10.0 mi West 21.9 mph 28.8 mph N/A   Partly Cloudy
7:51 PM 93.9 °F 18.0 °F 6% 29.57 in 10.0 mi West 13.8 mph - N/A   Partly Cloudy
8:51 PM 91.0 °F 18.0 °F 7% 29.59 in 10.0 mi WSW 11.5 mph - N/A   Partly Cloudy
9:51 PM 90.0 °F 18.0 °F 7% 29.61 in 10.0 mi WSW 6.9 mph - N/A   Scattered Clouds
10:51 PM 89.1 °F 14.0 °F 6% 29.61 in 10.0 mi SW 4.6 mph - N/A   Scattered Clouds
11:51 PM 88.0 °F 15.1 °F 7% 29.62 in 10.0 mi WNW 3.5 mph - N/A   Partly Cloudy